BREEZE-M DEB, 32031

Orbit data source: Space-Track

BREEZE-M DEB, 32031 is space debris in HEO originally from a launch on Tue, 28 Feb 2006 UTC launched from the Tyuratam Missile And Space Complex (TTMTR). Debris objects in space refer to the collection of defunct objects orbiting the Earth. Examples of debris include non-operational satellites, rocket bodies, and fragments generated from explosions, collisions, or faulty payload assembly.

Loading next visibility...
Identifier
32031, 2006-006J
Orbit
HEO
Country
Flag of CISCIS
Related business
Manufacturer
Khrunichev
Mission
Spacecraft
Bus & Motor
Unknown
Mass
Unknown
Launch date (UTC)
2006-02-28 (20 years ago)
Launch vehicle
Unknown
Launch site
Tyuratam Missile And Space Complex (TTMTR)
Object type
Payload
Rocket body
Debris
Shape & HBR
Unknown shape, 0.4 m
Radar Cross Section
Medium (>0.1 m² and <1 m²)

Expand to show TLE details & history
Last TLE update: 1 week ago

TLE from 1 week ago
0 BREEZE-M DEB
1 32031U 06006J   26153.70228444 -.00000095  00000-0 -14385-3 0  9999
2 32031  51.5018   6.8634 5053534 289.4054  23.9989  5.17105042363451
Epoch: 2026-06-02T16:51Z
TLE epoch observation values (Epoch: 2026-06-02T16:51:17.375Z)
Latitude
-0.00005°
Longitude
-137.11713°
Altitude
2,637.664 km
Speed
7.76 km/s
True Right ascension
00h 27m 30s
True Declination
0° 00' 00"
Sunlit
Object was in daylight at epoch
Visualization orbit readout
Latitude
Unknown
Longitude
Unknown
Altitude
Unknown
Speed
Unknown
Apparent Right ascension
Unknown
Apparent Declination
Unknown
Sunlit
N/A
Visualization observer readout
Local Sidereal Time
15:31:09
Azimuth
Unknown
Elevation
Unknown
Doppler factor
Unknown
Orbital elements
Apogee altitude
14,886.934 km
Perigee altitude
609.389 km
Semi-major axis
14,126.299 km
Eccentricity
0.50535
Inclination
51.5018°
RAAN
6.8634°
Arg. of periapsis
289.4054°
True anomaly
70.59343°
Mean anomaly
23.9989°
Eccentric anomaly
44.17655°
Mean motion
1.29271 °/min
Orbital period
278.49 mins
BSTAR
-0.00014385
Loading maneuver chart data...
Computing Atmospheric mass density...
Loading historical data...
Loading historical data...
Loading historical data...
Loading historical data...
Loading historical data...
Loading historical data...
Loading historical data...

Documentation

Showing up to 5 results
|